Weather History for Delaware, OH

Change the Weather History Date:

Saturday, April 5, 2014

  Actual Average Record
Temperature  
Mean Temperature 38 °F -  
Max Temperature 44 °F 55 °F 82 °F (1986)
Min Temperature 32 °F 34 °F 19 °F (1975)
Degree Days  
Heating Degree Days 27    
Moisture  
Dew Point 29 °F    
Average Humidity 72    
Maximum Humidity 93    
Minimum Humidity 53    
Precipitation  
Precipitation 0.00 in - - ()
Sea Level Pressure  
Sea Level Pressure 30.10 in    
Wind  
Wind Speed 14 mph (WNW)    
Max Wind Speed 22 mph    
Max Gust Speed 36 mph    
Visibility 10 miles    
Events      
Averages and records for this station are not official NWS values.
T = Trace of Precipitation, MM = Missing Value Source: NWS Daily Summary

Daily Weather History Graph

Daily Weather History Graph

Search for Another Location

Airport:

Trip Planner

Search our weather history database for the weather conditions in past years. The results will help you decide how hot, cold, wet, or windy it might be!

Date:

Astronomy

Apr. 05, 2014 Rise Set
Actual Time 7:09 AM EDT 8:01 PM EDT
Civil Twilight 6:42 AM EDT 8:28 PM EDT
Nautical Twilight 6:09 AM EDT 9:01 PM EDT
Astronomical Twilight 5:35 AM EDT 9:35 PM EDT
Moon 11:16 AM EDT (4/5) 1:10 AM EDT (4/5)
Length of Visible Light 13h 46m
Length of Day
12h 51m
Waxing Crescent, 34% of the Moon is Illuminated
Apr 5
Waxing Crescent
Apr 7
First Quarter
Apr 15
Full
Apr 22
Last Quarter
Apr 29
New

Hourly Weather History & Observations

Time (EDT) Temp. Windchill Dew Point Humidity Pressure Visibility Wind Dir Wind Speed Gust Speed Precip Events Conditions
12:16 AM 37.4 °F 26.6 °F 28.4 °F 70% 29.92 in 10.0 mi West 21.9 mph 35.7 mph N/A   Overcast
12:35 AM 35.6 °F 24.8 °F 28.4 °F 75% 29.93 in 10.0 mi WNW 19.6 mph 25.3 mph N/A   Overcast
12:56 AM 35.6 °F 24.2 °F 28.4 °F 75% 29.94 in 10.0 mi West 21.9 mph 33.4 mph N/A   Overcast
1:16 AM 35.6 °F 24.2 °F 28.4 °F 75% 29.94 in 10.0 mi West 21.9 mph 29.9 mph N/A   Overcast
1:36 AM 35.6 °F 25.2 °F 28.4 °F 75% 29.95 in 10.0 mi West 18.4 mph 25.3 mph N/A   Overcast
1:56 AM 35.6 °F 25.5 °F 26.6 °F 70% 29.95 in 10.0 mi West 17.3 mph 26.5 mph N/A   Overcast
2:16 AM 35.6 °F 27.1 °F 26.6 °F 70% 29.96 in 10.0 mi West 12.7 mph 24.2 mph N/A   Overcast
2:35 AM 35.6 °F 26.6 °F 26.6 °F 70% 29.96 in 10.0 mi West 13.8 mph 21.9 mph N/A   Overcast
2:56 AM 35.6 °F 26.6 °F 26.6 °F 70% 29.96 in 10.0 mi West 13.8 mph 21.9 mph N/A   Overcast
3:16 AM 35.6 °F 27.1 °F 26.6 °F 70% 29.97 in 10.0 mi West 12.7 mph 19.6 mph N/A   Overcast
3:36 AM 35.6 °F 26.6 °F 28.4 °F 75% 29.97 in 10.0 mi West 13.8 mph 17.3 mph N/A   Overcast
3:56 AM 35.6 °F 26.2 °F 28.4 °F 75% 29.98 in 10.0 mi West 15.0 mph 23.0 mph N/A   Overcast
4:16 AM 33.8 °F 23.2 °F 28.4 °F 81% 29.98 in 10.0 mi West 17.3 mph 21.9 mph N/A   Overcast
4:36 AM 33.8 °F 24.3 °F 28.4 °F 81% 29.99 in 10.0 mi West 13.8 mph 18.4 mph N/A   Overcast
4:56 AM 33.8 °F 23.9 °F 28.4 °F 81% 29.99 in 10.0 mi West 15.0 mph 20.7 mph N/A   Overcast
5:16 AM 33.8 °F 25.3 °F 28.4 °F 81% 30.00 in 10.0 mi West 11.5 mph 18.4 mph N/A   Overcast
5:36 AM 33.8 °F 24.8 °F 28.4 °F 81% 30.01 in 10.0 mi West 12.7 mph 19.6 mph N/A   Overcast
5:56 AM 33.8 °F 23.2 °F 26.6 °F 75% 30.01 in 10.0 mi West 17.3 mph 24.2 mph N/A   Overcast
6:16 AM 33.8 °F 25.3 °F 28.4 °F 81% 30.02 in 10.0 mi West 11.5 mph 18.4 mph N/A   Overcast
6:36 AM 33.8 °F 23.2 °F 28.4 °F 81% 30.03 in 10.0 mi WNW 17.3 mph - N/A   Overcast
6:56 AM 33.8 °F 25.3 °F 28.4 °F 81% 30.04 in 10.0 mi WNW 11.5 mph - N/A   Overcast
7:16 AM 33.8 °F 23.5 °F 28.4 °F 81% 30.05 in 10.0 mi WNW 16.1 mph 25.3 mph N/A   Overcast
7:36 AM 33.8 °F 23.5 °F 28.4 °F 81% 30.06 in 10.0 mi WNW 16.1 mph 21.9 mph N/A   Overcast
7:56 AM 33.8 °F 24.8 °F 28.4 °F 81% 30.07 in 10.0 mi WNW 12.7 mph 19.6 mph N/A   Overcast
8:16 AM 33.8 °F 24.3 °F 28.4 °F 81% 30.08 in 10.0 mi WNW 13.8 mph 23.0 mph N/A   Overcast
8:36 AM 33.8 °F 22.8 °F 28.4 °F 81% 30.09 in 10.0 mi WNW 18.4 mph 23.0 mph N/A   Overcast
8:56 AM 33.8 °F 24.8 °F 26.6 °F 75% 30.10 in 10.0 mi WNW 12.7 mph 24.2 mph N/A   Overcast
9:16 AM 33.8 °F 21.9 °F 26.6 °F 75% 30.10 in 10.0 mi WNW 21.9 mph 25.3 mph N/A   Overcast
9:36 AM 32.0 °F 20.1 °F 26.6 °F 80% 30.11 in 10.0 mi NW 19.6 mph 25.3 mph N/A   Overcast
9:56 AM 32.0 °F 22.5 °F 26.6 °F 80% 30.13 in 10.0 mi WNW 12.7 mph 21.9 mph N/A   Overcast
10:15 AM 32.0 °F 21.6 °F 26.6 °F 80% 30.14 in 10.0 mi NW 15.0 mph 20.7 mph N/A   Overcast
10:36 AM 32.0 °F 23.0 °F 26.6 °F 80% 30.14 in 10.0 mi NNW 11.5 mph 19.6 mph N/A   Overcast
10:56 AM 32.0 °F 22.5 °F 26.6 °F 80% 30.15 in 10.0 mi NW 12.7 mph 18.4 mph N/A   Overcast
11:15 AM 33.8 °F 24.8 °F 26.6 °F 75% 30.15 in 10.0 mi NW 12.7 mph 20.7 mph N/A   Overcast
11:36 AM 33.8 °F 26.4 °F 28.4 °F 81% 30.16 in 10.0 mi NW 9.2 mph 16.1 mph N/A   Overcast
11:56 AM 33.8 °F 24.3 °F 28.4 °F 81% 30.16 in 10.0 mi NW 13.8 mph 17.3 mph N/A   Overcast
12:15 PM 35.6 °F 26.6 °F 28.4 °F 75% 30.16 in 10.0 mi WNW 13.8 mph 17.3 mph N/A   Overcast
12:36 PM 37.4 °F 30.8 °F 28.4 °F 70% 30.16 in 10.0 mi NW 9.2 mph 16.1 mph N/A   Overcast
12:56 PM 37.4 °F 29.3 °F 28.4 °F 70% 30.16 in 10.0 mi NW 12.7 mph 16.1 mph N/A   Overcast
1:16 PM 37.4 °F 29.8 °F 30.2 °F 75% 30.16 in 10.0 mi WNW 11.5 mph 17.3 mph N/A   Mostly Cloudy
1:36 PM 39.2 °F 32.0 °F 30.2 °F 70% 30.16 in 10.0 mi West 11.5 mph 17.3 mph N/A   Mostly Cloudy
1:56 PM 39.2 °F 33.6 °F 30.2 °F 70% 30.16 in 10.0 mi NW 8.1 mph 18.4 mph N/A   Scattered Clouds
2:16 PM 41.0 °F 34.3 °F 30.2 °F 65% 30.16 in 10.0 mi WNW 11.5 mph - N/A   Mostly Cloudy
2:36 PM 41.0 °F 35.8 °F 30.2 °F 65% 30.16 in 10.0 mi NW 8.1 mph - N/A   Mostly Cloudy
2:56 PM 41.0 °F 37.1 °F 30.2 °F 65% 30.16 in 10.0 mi NW 5.8 mph - N/A   Mostly Cloudy
3:16 PM 42.8 °F 36.6 °F 32.0 °F 66% 30.16 in 10.0 mi WNW 11.5 mph 17.3 mph N/A   Mostly Cloudy
3:36 PM 42.8 °F 39.3 °F 30.2 °F 61% 30.16 in 10.0 mi NW 5.8 mph - N/A   Scattered Clouds
3:56 PM 42.8 °F 38.6 °F 30.2 °F 61% 30.16 in 10.0 mi WNW 6.9 mph 16.1 mph N/A   Scattered Clouds
4:16 PM 44.6 °F 39.2 °F 30.2 °F 57% 30.15 in 10.0 mi WNW 10.4 mph 16.1 mph N/A   Scattered Clouds
4:36 PM 44.6 °F 39.2 °F 32.0 °F 61% 30.15 in 10.0 mi WNW 10.4 mph - N/A   Scattered Clouds
4:56 PM 44.6 °F 40.7 °F 30.2 °F 57% 30.15 in 10.0 mi NNW 6.9 mph - N/A   Scattered Clouds
5:16 PM 44.6 °F 42.2 °F 28.4 °F 53% 30.15 in 10.0 mi NNW 4.6 mph - N/A   Scattered Clouds
5:36 PM 44.6 °F 39.2 °F 28.4 °F 53% 30.15 in 10.0 mi NNW 10.4 mph - N/A   Scattered Clouds
5:56 PM 44.6 °F 40.2 °F 28.4 °F 53% 30.15 in 10.0 mi NNW 8.1 mph - N/A   Scattered Clouds
6:16 PM 44.6 °F 43.1 °F 28.4 °F 53% 30.15 in 10.0 mi NW 3.5 mph - N/A   Scattered Clouds
6:36 PM 44.6 °F 42.2 °F 28.4 °F 53% 30.16 in 10.0 mi NW 4.6 mph - N/A   Clear
6:56 PM 44.6 °F 40.2 °F 28.4 °F 53% 30.15 in 10.0 mi NNW 8.1 mph - N/A   Scattered Clouds
7:16 PM 42.8 °F 40.1 °F 28.4 °F 57% 30.16 in 10.0 mi NNW 4.6 mph - N/A   Clear
7:36 PM 42.8 °F 41.1 °F 28.4 °F 57% 30.16 in 10.0 mi North 3.5 mph - N/A   Clear
7:56 PM 41.0 °F 39.0 °F 28.4 °F 61% 30.16 in 10.0 mi North 3.5 mph - N/A   Clear
8:16 PM 41.0 °F - 26.6 °F 57% 30.17 in 10.0 mi Calm Calm - N/A   Clear
8:36 PM 41.0 °F - 26.6 °F 57% 30.17 in 10.0 mi Calm Calm - N/A   Clear
8:56 PM 39.2 °F - 28.4 °F 65% 30.18 in 10.0 mi Calm Calm - N/A   Clear
9:16 PM 37.4 °F - 32.0 °F 81% 30.19 in 10.0 mi Calm Calm - N/A   Clear
9:36 PM 37.4 °F - 30.2 °F 75% 30.19 in 10.0 mi Calm Calm - N/A   Clear
9:56 PM 35.6 °F - 32.0 °F 87% 30.20 in 10.0 mi Calm Calm - N/A   Clear
10:16 PM 35.6 °F - 30.2 °F 81% 30.20 in 10.0 mi Calm Calm - N/A   Clear
10:36 PM 35.6 °F - 30.2 °F 81% 30.19 in 10.0 mi Calm Calm - N/A   Clear
10:56 PM 35.6 °F - 32.0 °F 87% 30.19 in 10.0 mi Calm Calm - N/A   Clear
11:16 PM 33.8 °F - 30.2 °F 87% 30.19 in 10.0 mi Calm Calm - N/A   Clear
11:36 PM 33.8 °F - 30.2 °F 87% 30.19 in 10.0 mi Calm Calm - N/A   Clear
11:56 PM 32.0 °F - 30.2 °F 93% 30.19 in 10.0 mi Calm Calm - N/A   Clear